TimeCDT,TemperatureF,Dew PointF,Humidity,Sea Level PressureIn,VisibilityMPH,Wind Direction,Wind SpeedMPH,Gust SpeedMPH,PrecipitationIn,Events,Conditions,WindDirDegrees,DateUTC
12:29 AM,57.2,57.2,100,30.17,1.8,Calm,Calm,-,N/A,,Clear,0,2012-10-13 05:29:00
12:53 AM,57.0,57.0,100,30.19,6.0,South,3.5,-,N/A,,Clear,170,2012-10-13 05:53:00
1:53 AM,59.0,59.0,100,30.19,6.0,Calm,Calm,-,N/A,,Clear,0,2012-10-13 06:53:00
2:11 AM,57.2,55.4,94,30.18,2.0,Calm,Calm,-,N/A,,Clear,0,2012-10-13 07:11:00
2:49 AM,57.2,57.2,100,30.17,0.2,Calm,Calm,-,N/A,Fog,Fog,0,2012-10-13 07:49:00
2:53 AM,57.0,55.9,96,30.19,0.2,Calm,Calm,-,N/A,Fog,Fog,0,2012-10-13 07:53:00
3:21 AM,55.4,55.4,100,30.18,1.0,Calm,Calm,-,N/A,,Clear,0,2012-10-13 08:21:00
3:29 AM,55.4,55.4,100,30.18,0.5,Calm,Calm,-,N/A,Fog,Fog,0,2012-10-13 08:29:00
3:51 AM,55.4,53.6,94,30.17,2.5,Calm,Calm,-,N/A,,Clear,0,2012-10-13 08:51:00
3:53 AM,55.9,54.0,93,30.19,3.0,Calm,Calm,-,N/A,,Clear,0,2012-10-13 08:53:00
4:34 AM,59.0,59.0,100,30.17,2.0,ESE,3.5,-,N/A,,Clear,110,2012-10-13 09:34:00
4:42 AM,60.8,59.0,94,30.17,6.0,ESE,3.5,-,N/A,,Clear,120,2012-10-13 09:42:00
4:53 AM,60.1,59.0,96,30.19,4.0,Calm,Calm,-,N/A,,Clear,0,2012-10-13 09:53:00
5:53 AM,61.0,60.1,97,30.20,4.0,SE,4.6,-,N/A,,Clear,140,2012-10-13 10:53:00
6:51 AM,57.2,57.2,100,30.20,2.5,SE,3.5,-,N/A,,Clear,130,2012-10-13 11:51:00
6:53 AM,57.0,55.9,96,30.22,2.5,SE,3.5,-,N/A,,Clear,130,2012-10-13 11:53:00
7:04 AM,60.8,59.0,94,30.20,3.0,Calm,Calm,-,N/A,,Clear,0,2012-10-13 12:04:00
7:13 AM,57.2,57.2,100,30.20,2.0,Calm,Calm,-,N/A,,Clear,0,2012-10-13 12:13:00
7:21 AM,57.2,57.2,100,30.20,1.2,Calm,Calm,-,N/A,,Clear,0,2012-10-13 12:21:00
7:43 AM,62.6,60.8,94,30.20,2.5,Calm,Calm,-,N/A,,Clear,0,2012-10-13 12:43:00
7:53 AM,64.0,63.0,96,30.22,3.0,SE,3.5,-,N/A,,Clear,140,2012-10-13 12:53:00
8:53 AM,70.0,66.0,87,30.24,8.0,South,5.8,-,N/A,,Clear,170,2012-10-13 13:53:00
9:53 AM,73.9,66.9,79,30.25,10.0,South,5.8,-,N/A,,Clear,180,2012-10-13 14:53:00
10:53 AM,79.0,66.9,66,30.23,10.0,SSE,12.7,-,N/A,,Clear,160,2012-10-13 15:53:00
11:53 AM,80.1,64.9,60,30.20,10.0,South,11.5,18.4,N/A,,Partly Cloudy,180,2012-10-13 16:53:00
12:53 PM,82.0,66.0,58,30.17,10.0,South,10.4,16.1,N/A,,Partly Cloudy,190,2012-10-13 17:53:00
1:53 PM,84.0,64.9,53,30.13,10.0,South,13.8,20.7,N/A,,Scattered Clouds,190,2012-10-13 18:53:00
3:53 PM,82.9,64.0,53,30.09,10.0,South,10.4,16.1,N/A,,Scattered Clouds,190,2012-10-13 20:53:00
4:53 PM,82.0,64.9,56,30.09,10.0,South,13.8,17.3,N/A,,Partly Cloudy,170,2012-10-13 21:53:00
5:53 PM,80.1,64.9,60,30.08,10.0,SSE,9.2,-,N/A,,Clear,160,2012-10-13 22:53:00
7:53 PM,73.9,66.0,76,30.06,10.0,SE,9.2,-,N/A,,Clear,140,2012-10-14 00:53:00
9:53 PM,73.0,66.9,81,30.09,10.0,SSE,10.4,-,N/A,,Clear,160,2012-10-14 02:53:00